OBJECT G, 62615

Orbit data source: Space-Track

You're viewing an Uncataloged Satellite

Recently launched and/or uncataloged satellites may have evolving metadata. Metadata may include but not limited to: Owner, Maufacturer, Bus, Motor, and Mission.

OBJECT G, 62615 is a satellite in SSO that was launched on Tue, 14 Jan 2025 UTC via an FALCON 9 launch vehicle from the Air Force Western Test Range (AFWTR). Unknown objects in Earth's orbit typically refer to objects detected orbiting the Earth but have not yet been identified or cataloged. These objects could be anything from previously untracked satellites, spent rocket stages, debris from satellite collisions, or even natural meteoroids temporarily captured by Earth's gravity.

Loading next visibility...
Identifier
62615, 2025-009G
Orbit
SSO
Country
Flag of TBDTBD
Related business
None
Manufacturer
Unknown
Mission
Operational Commercial Weather
Bus & Motor
Unknown
Mass
Unknown
Launch date (UTC)
2025-01-14 (1 year ago)
Launch vehicle
FALCON 9
Launch site
Air Force Western Test Range (AFWTR)
Object type
Unknown
Shape & HBR
Box, 0.4 m
Radar Cross Section
0.015 m², Medium (>0.1 m² and < 1m²)

Expand to show TLE details & history
Last TLE update: 8 hours ago

TLE from 8 hours ago
0 OBJECT G
1 62615U 25009G   26122.16504806  .00008502  00000-0  34108-3 0  9993
2 62615  97.3951 202.6572 0007647 124.9576 235.2381 15.25210671 71785
Epoch: 2026-05-02T03:57Z
TLE epoch observation values (Epoch: 2026-05-02T03:57:40.152Z)
Latitude
-0.00004°
Longitude
-76.84697°
Altitude
496.249 km
Speed
7.615 km/s
True Right ascension
13h 30m 37s
True Declination
0° 00' 00"
Sunlit
Object was in full shadow at epoch
Visualization orbit readout
Latitude
Unknown
Longitude
Unknown
Altitude
Unknown
Speed
Unknown
Apparent Right ascension
Unknown
Apparent Declination
Unknown
Sunlit
N/A
Visualization observer readout
Local Sidereal Time
19:52:58
Azimuth
Unknown
Elevation
Unknown
Doppler factor
Unknown
Orbital elements
Apogee altitude
492.361 km
Perigee altitude
481.861 km
Semi-major axis
6,865.248 km
Eccentricity
0.00076
Inclination
97.3951°
RAAN
202.6572°
Arg. of periapsis
124.9576°
True anomaly
235.16615°
Mean anomaly
235.2381°
Eccentric anomaly
235.20212°
Mean motion
3.81556 °/min
Orbital period
94.35 mins
BSTAR
0.00034108
Loading maneuver chart data...
Computing Atmospheric mass density...
Loading historical data...
Loading historical data...
Loading historical data...
Loading historical data...
Loading historical data...
Loading historical data...
Loading historical data...

Documentation

Showing up to 5 results
|